Springfield, OH

5:26 AM EDT on April 29, 2017 (GMT -0400)
Springfield-Beckley Municipal

Weather History for KSGH - March, 2013

Change the Weather History Date:

Thursday, March 7, 2013

  Actual Average (KFFO) Record (KFFO)
Temperature  
Mean Temperature 30 °F -  
Max Temperature 35 °F 43 °F 77 °F (2009)
Min Temperature 26 °F 24 °F 12 °F (1999)
Degree Days  
Heating Degree Days 34    
Moisture  
Dew Point 25 °F    
Average Humidity 81    
Maximum Humidity 93    
Minimum Humidity 70    
Precipitation  
Precipitation 0.07 in - - ()
Sea Level Pressure  
Sea Level Pressure 30.33 in    
Wind  
Wind Speed 6 mph (WNW)    
Max Wind Speed 9 mph    
Max Gust Speed -    
Visibility 4 miles    
Events      
Averages and records for this station are not official NWS values.
T = Trace of Precipitation, MM = Missing Value Source: NWS Daily Summary

Daily Weather History Graph

Daily Weather History Graph

Search for Another Location

Airport or City:

Trip Planner

Search our weather history database for the weather conditions in past years. The results will help you decide how hot, cold, wet, or windy it might be!

Date:

Astronomy

Mar. 07, 2013 Rise Set
Actual Time 6:59 AM EST 6:34 PM EST
Civil Twilight 6:32 AM EST 7:01 PM EST
Nautical Twilight 6:00 AM EST 7:32 PM EST
Astronomical Twilight 5:29 AM EST 8:03 PM EST
Moon 3:57 AM EST (3/7) 2:21 PM EST (3/7)
Length of Visible Light 12h 29m
Length of Day
11h 35m
Waning Crescent, 20% of the Moon is Illuminated
Mar 7
Waning Crescent
Mar 11
New
Mar 19
First Quarter
Mar 27
Full
Apr 3
Last Quarter

Hourly Weather History & Observations

Time (EST) Temp. Windchill Dew Point Humidity Pressure Visibility Wind Dir Wind Speed Gust Speed Precip Events Conditions
12:07 AM 28.4 °F 24.6 °F 24.8 °F 86% 30.22 in 5.0 mi West 3.5 mph - N/A   Overcast
12:56 AM 28.0 °F 21.7 °F 24.1 °F 85% 30.26 in 5.0 mi West 5.8 mph - N/A   Overcast
1:49 AM 26.6 °F 21.2 °F 23.0 °F 86% 30.23 in 5.0 mi WNW 4.6 mph - N/A   Overcast
1:56 AM 27.1 °F 21.8 °F 23.0 °F 84% 30.27 in 4.0 mi NW 4.6 mph - N/A   Overcast
2:56 AM 26.1 °F 19.4 °F 23.0 °F 88% 30.26 in 4.0 mi West 5.8 mph - N/A   Overcast
3:56 AM 27.1 °F 21.8 °F 23.0 °F 84% 30.27 in 5.0 mi West 4.6 mph - N/A   Overcast
4:56 AM 27.1 °F 19.7 °F 23.0 °F 84% 30.28 in 5.0 mi West 6.9 mph - N/A   Overcast
5:56 AM 28.0 °F 20.8 °F 24.1 °F 85% 30.31 in 5.0 mi West 6.9 mph - N/A   Overcast
6:56 AM 28.0 °F 22.8 °F 24.1 °F 85% 30.32 in 4.0 mi West 4.6 mph - N/A   Overcast
7:49 AM 28.4 °F 21.2 °F 24.8 °F 86% 30.30 in 2.5 mi WNW 6.9 mph - N/A   Overcast
7:56 AM 28.0 °F 20.8 °F 25.2 °F 89% 30.34 in 2.5 mi WNW 6.9 mph - N/A   Overcast
8:08 AM 28.4 °F 22.2 °F 24.8 °F 86% 30.31 in 2.5 mi WNW 5.8 mph - N/A   Overcast
8:17 AM 28.4 °F 22.2 °F 24.8 °F 86% 30.31 in 2.5 mi NW 5.8 mph - N/A   Overcast
8:56 AM 29.1 °F 22.1 °F 26.1 °F 88% 30.36 in 2.5 mi WNW 6.9 mph - N/A   Overcast
9:37 AM 28.4 °F 19.7 °F 26.6 °F 93% 30.33 in 2.5 mi WNW 9.2 mph - 0.00 in   Overcast
9:56 AM 29.1 °F 21.3 °F 27.1 °F 92% 30.37 in 2.5 mi WNW 8.1 mph - 0.00 in   Overcast
10:20 AM 30.2 °F 22.6 °F 26.6 °F 86% 30.33 in 2.5 mi WNW 8.1 mph - 0.00 in   Overcast
10:56 AM 31.1 °F 23.1 °F 27.1 °F 85% 30.37 in 3.0 mi WNW 9.2 mph - 0.00 in   Overcast
11:56 AM 32.0 °F 25.6 °F 28.0 °F 85% 30.37 in 3.0 mi WNW 6.9 mph - 0.03 in   Overcast
12:34 PM 33.8 °F 28.6 °F 26.6 °F 75% 30.33 in 4.0 mi West 5.8 mph - 0.03 in   Haze
12:56 PM 32.9 °F 26.7 °F 27.1 °F 79% 30.37 in 4.0 mi WNW 6.9 mph - 0.03 in   Haze
1:56 PM 34.0 °F 27.2 °F 27.1 °F 76% 30.35 in 3.0 mi West 8.1 mph - 0.01 in   Haze
1:58 PM 33.8 °F 26.4 °F 26.6 °F 75% 30.31 in 1.5 mi West 9.2 mph - N/A   Haze
2:08 PM 35.6 °F 29.9 °F 26.6 °F 70% 30.31 in 4.0 mi NW 6.9 mph - N/A   Haze
2:56 PM 34.9 °F 27.7 °F 27.1 °F 73% 30.34 in 5.0 mi NNW 9.2 mph - N/A   Haze
3:56 PM 34.9 °F 27.7 °F 26.1 °F 70% 30.36 in 6.0 mi WNW 9.2 mph - N/A   Haze
4:56 PM 34.0 °F 26.6 °F 27.1 °F 76% 30.37 in 6.0 mi NNW 9.2 mph - N/A   Haze
5:56 PM 34.0 °F 28.8 °F 26.1 °F 73% 30.37 in 6.0 mi NW 5.8 mph - N/A   Haze
6:56 PM 32.9 °F 26.7 °F 26.1 °F 76% 30.39 in 7.0 mi NW 6.9 mph - N/A   Overcast
7:56 PM 32.0 °F 25.6 °F 26.1 °F 79% 30.40 in 7.0 mi NW 6.9 mph - N/A   Overcast
8:56 PM 32.0 °F 26.4 °F 24.1 °F 73% 30.40 in 8.0 mi NNW 5.8 mph - N/A   Overcast
9:56 PM 31.1 °F 25.4 °F 23.0 °F 72% 30.40 in 8.0 mi NW 5.8 mph - N/A   Mostly Cloudy
10:56 PM 28.0 °F 24.2 °F 23.0 °F 81% 30.40 in 8.0 mi North 3.5 mph - N/A   Clear
11:56 PM 28.0 °F 24.2 °F 22.1 °F 78% 30.40 in 7.0 mi NNW 3.5 mph - N/A   Clear